www.pogodaiklimat.ru

Погода и климат >> Архив погоды >> Россия >> Свердловская область >> Екатеринбург


АРХИВ ПОГОДЫ в Екатеринбурге

Время (UTC), дата Ветер
(напр.,м/с)
 
Видим.   Явления Облачность Т
(С)
Тd
(С)
f
(%)
Тe
(С)
Тes
(С)
Комфортность P
(гПа)
Po
(гПа)
Тmin
(С)
Tmax
(С)
R
(мм)
R24
(мм)
S
(см)
09 19.05 Ю 4
{11}
50 км 6/0
[Ci fib]
+17.6 -0.5 29 +17 +26 тепло 1015.9 983.1
12 19.05 ЮВ 5
{11}
50 км 10/0
[Cs]
+16.6 +0.9 35 +16 +19 по сезону 1014.6 981.7
15 19.05 ЮВ 4-10
{10}
50 км 8/3 1000 м
[Sc Ci fib]
+15.0 +2.3 42 +14 +14 по сезону 1013.4 980.4 +18.5 0.0
18 19.05 ЮВ 3
{10}
10 км 8/0
[Cs]
+14.3 +2.1 44 +14 +14 тепло 1012.9 979.8
21 19.05 ЮВ 2 10 км 8/0
[Cs]
+14.3 +5.2 54 +14 +14 тепло 1010.6 977.6
00 20.05 Ю 2 20 км 8/0
[Cs]
+15.0 +9.0 67 +15 +15 тепло 1010.0 977.2
03 20.05 ЮЗ 5-10
{10}
20 км 10/0
[Ac trans Cs]
+19.8 +9.6 52 +21 +22 комфорт 1009.2 976.9 +13.7
06 20.05 З 4
{10}
50 км 8/8 600 м
[Cu Sc]
+23.8 +7.6 35 +24 +26 комфорт 1007.9 976.0
09 20.05 ЮЗ 3
{22}
20 км в посл. час гроза {ливн. осадки} 10/8 600 м
[Cb calv Ac As]
+15.4 +11.7 79 1009.7 976.9
12 20.05 ЮЗ 6-12
{12}
20 км гроза без осадков 10/9 600 м
[Cb cap Ci fib]
+22.8 +6.3 34 +23 +24 комфорт 1006.8 974.9
15 20.05 З 2
{14}
20 км {гроза, ливн. осадки} 9/6 600 м
[Cb calv Ci fib]
+15.7 +11.3 75 +16 +16 тепло 1009.0 976.3 +26.3 3
18 20.05 ЮЗ 4 10 км {гроза, ливн. осадки} 8/0
[Ac und Cc]
+13.6 +11.3 86 +12 +12 по сезону 1010.0 977.0
21 20.05 СЗ 4 10 км 9/6 600 м
[Sc Ci fib]
+13.5 +10.2 80 +12 +12 тепло 1011.2 978.2
00 21.05 СЗ 3 20 км 10/8 600 м
[Sc Ac und]
+11.8 +7.6 75 +10 +10 тепло 1013.8 980.5
03 21.05 СЗ 4 20 км 9/9 600 м
[Sc]
+10.5 +5.3 70 +8 +8 по сезону 1016.9 983.3 +10.1 0.6
06 21.05 СЗ 4 20 км в посл. час морось 9/9 600 м
[Sc]
+9.3 +5.3 76 +7 +7 холодно 1019.1 985.3 +9.1
09 21.05 З 3 20 км 10/10 600 м
[Sc]
+10.2 +4.6 68 +8 +8 холодно 1020.3 986.5
12 21.05 С 3 50 км 9/9 600 м
[Sc]
+11.7 +3.6 58 +10 +11 холодно 1020.7 987.1
15 21.05 СЗ 3 50 км 3/3 600 м
[Cb calv Ci fib]
+11.8 +0.7 46 +11 +11 по сезону 1021.4 987.8 +13.6 0.0
18 21.05 СЗ 3 10 км 8/8 600 м
[Sc]
+10.1 0.0 49 +8 +8 прохладно 1022.7 988.8
21 21.05 СЗ 2 10 км ясно +7.6 0.0 59 +6 +6 по сезону 1023.3 989.1
00 22.05 З 2 50 км 4/0
[Cs]
+5.4 -0.8 64 +3 +3 прохладно 1024.0 989.5
03 22.05 З 3 50 км 8/6 600 м
[Sc Cs]
+9.2 +0.5 54 +7 +9 прохладно 1022.4 988.4 +5.3
06 22.05 З 6-11
{12}
50 км 9/9 600 м
[Sc]
+16.8 +1.9 37 +16 +16 тепло 1019.5 986.5
09 22.05 З 8-18
{18}
50 км 8/3 600 м
[Cu Sc As trans]
+21.2 +1.9 28 +21 +22 комфорт 1015.9 983.5
12 22.05 СЗ 7-17
{18}
50 км 9/9 600 м
[Sc]
+22.5 +2.8 27 +22 +22 комфорт 1014.2 982.0
15 22.05 С 5-11
{20}
50 км 8/8 600 м
[Cb calv]
+20.5 +1.7 29 +21 +21 комфорт 1016.5 984.0 +22.6
18 22.05 С 1
{13}
10 км ясно +15.0 -5.1 25 +16 +16 тепло 1021.9 988.6
21 22.05 С 2 10 км ясно +11.9 -9.5 21 +12 +12 тепло 1024.7 990.9
00 23.05 штиль 0 50 км ясно +8.8 -7.9 30 +9 +9 по сезону 1027.5 993.3
03 23.05 В 1 50 км ясно +11.5 -5.6 30 +12 +17 тепло 1028.6 994.7 +8.2
06 23.05 З 2 50 км ясно +15.1 -5.3 24 +15 +28 опасность
простуды
1027.8 994.4
09 23.05 З 2 50 км ясно +19.9 -6.7 16 +20 +34 опасность
простуды
1025.0 992.2
12 23.05 З 2 50 км 4/0
[Ac lent Ci fib]
+24.3 -3.8 15 +22 +27 комфорт 1021.7 989.4
15 23.05 Ю 2 50 км 10/3 1000 м
[Sc Ac trans Ci]
+23.0 -0.8 21 +22 +22 комфорт 1018.6 986.3 +24.6
18 23.05 З 3 10 км 9/9 1000 м
[Sc]
+21.5 +3.7 31 +22 +22 комфорт 1016.5 984.1
21 23.05 З 3 10 км 8/8 1000 м
[Sc]
+19.9 +5.0 38 +21 +21 комфорт 1015.1 982.6
00 24.05 З 4 50 км 10/0
[Ac trans Ci fib]
+17.6 +4.8 43 +17 +17 тепло 1014.2 981.5
03 24.05 З 4 50 км 8/4
[Sc Ac trans Ci fib]
+19.7 +8.1 47 +21 +22 комфорт 1012.6 980.2 +17.5
06 24.05 З 6-12
{13}
50 км 9/9 600 м
[Sc]
+22.3 +8.1 40 +23 +24 комфорт 1010.3 978.3
09 24.05 З 8-16
{17}
50 км {гроза, ливн. осадки} 6/4 600 м
[Sc Ci fib]
+23.1 +9.1 41 +25 +26 комфорт 1008.5 976.6
12 24.05 СЗ 5
{17}
50 км в посл. час морось {гроза, ливн. осадки} 9/9 600 м
[Cb calv Ci fib]
+20.4 +7.3 43 +21 +22 комфорт 1010.2 978.0
15 24.05 СЗ 3
{18}
50 км {гроза, ливн. осадки} 10/4 600 м
[Cb calv Ci fib]
+16.0 +9.4 65 +16 +16 тепло 1012.4 979.6 +23.9 2
18 24.05 СЗ 3 10 км слабый ливневой дождь 10/10 600 м
[Cb calv]
+14.7 +7.8 63 +14 +14 тепло 1012.9 980.0
21 24.05 СЗ 4 10 км {ливн. осадки} 10/3 600 м
[Sc Ci fib]
+12.6 +6.3 65 +11 +11 по сезону 1013.3 980.1
00 25.05 ЮВ 1 10 км слабый ливневой дождь 10/10 600 м
[Cb calv]
+8.8 -0.6 52 +9 +9 по сезону 1014.4 980.6
03 25.05 штиль 0 20 км 10/4 600 м
[Sc Cc]
+8.3 -2.0 48 +8 +11 по сезону 1014.2 980.4 +7.9 0.0
06 25.05 С 2 50 км 6/4 600 м
[Sc Cs]
+11.4 -1.5 41 +11 +18 прохладно 1012.9 979.5
09 25.05 С 2 50 км 9/8 600 м
[Sc Cs]
+12.6 -3.4 33 +12 +15 прохладно 1012.2 978.9
12 25.05 С 2 50 км 9/9 600 м
[Cb calv]
+11.2 -4.5 33 +11 +11 холодно 1012.9 979.5
15 25.05 СВ 1 20 км 9/9 600 м
[Cb calv]
+9.8 -5.8 33 +10 +10 прохладно 1014.3 980.7 +13.4
18 25.05 С 2
{11}
10 км 6/0
[Ac trans Ci fib]
+6.4 -3.8 48 +5 +5 холодно 1016.5 982.4
21 25.05 С 2 10 км ясно +4.4 -4.6 52 +2 +2 холодно 1016.9 982.5
00 26.05 С 2 20 км 8/8 600 м
[Cb calv]
+2.4 -4.3 61 -0 -0 холодно 1018.5 983.9
03 26.05 С 3
{11}
50 км 6/4 600 м
[Cb calv Cs]
+3.7 -4.6 55 0 +3 очень
холодно
1019.4 984.9 +2.1
06 26.05 С 2
{11}
50 км 8/8 600 м
[Cb calv]
+6.5 -6.5 39 +5 +7 очень
холодно
1020.2 986.0

 

Местоположение метеостанции Екатеринбург (Свердловская область, Россия): широта 56.83 долгота 60.63 высота над уровнем моря 281 м.

В архиве по умолчанию представлена погода в Екатеринбурге за последнюю неделю. Архивные данные за месяц целиком и за предыдущие месяцы, начиная с января 2011 года, Вы можете получить, выбрав интересующий диапазон дат из раскрывающегося списка и нажав кнопку "Ввод!".


*Определитесь, кто Вы:
робот инопланетянин человек

Внимание! Время в таблицах - всемирное. Для получения местного времени необходимо прибавить поправку, которая в Екатеринбурге равна 5 ч.

Смотрите также архив погоды в соседних городах и на ближайших метеорологических станциях:

Погода в Екатеринбурге (Бот.сад) (Свердловская область, Россия) (5 км)
Погода в Верхнем Дуброво (Свердловская область, Россия) (29 км)
Погода в Сысерти (Свердловская область, Россия) (38 км)
Погода в Ревде (Свердловская область, Россия) (40 км)
Погода в Мариинске (Свердловская область, Россия) (52 км)
Погода в Невьянске (Свердловская область, Россия) (78 км)
Погода в Верхнем Уфалее (Челябинская область, Россия) (86 км)
Погода в Каменск-Уральском (Свердловская область, Россия) (88 км)
Погода в Бисерти (Свердловская область, Россия) (95 км)
Погода в Артемовском (Свердловская область, Россия) (98 км)

Пояснения к столбцам:

Ветер - указаны скорость ветра в м/с - средняя за 10 мин, порывы в срок и между сроками (в фигурных скобках) и направление, откуда дует ветер: С - северный, СВ - северо-восточный, В - восточный, ЮВ - юго-восточный, Ю - южный, ЮЗ - юго-западный, З - западный, СЗ - северо-западный.
Видимость - горизонтальная дальность видимости в метрах или километрах. При видимости от 1 до 10 км при отсутствии осадков обычно наблюдается дымка, при ухудшении видимости до 1 км и менее - туман. В сухую погоду видимость может ухудшаться дымом, пылью или мглою.
Явления - указаны атмосферные явления, наблюдавшиеся в срок или в последний час перед сроком; фигурными скобками обозначены явления, наблюдавшиеся между сроками (за 1-3 часа до срока); квадратными скобками обозначены град или гололедные отложения с указанием их диаметра в мм.
Облачность - указаны через наклонную черту общая и нижняя облачность в баллах и высота нижней границы облаков в метрах; квадратными скобками обозначены формы облаков: Ci - перистые, Cs - перисто-слоистые, Cc - перисто-кучевые, Ac - высококучевые, As - высокослоистые, Sc - слоисто-кучевые, Ns - слоисто-дождевые, Cu - кучевые, Cb - кучево-дождевые. Подробнее классификацию облаков см. в Атласе облаков (PDF).
T - Температура воздуха - температура, измеренная на высоте 2 м над землей.
Td - Температура точки росы - температура, при понижении до которой содержащийся в воздухе водяной пар достигнет насыщения.
f - Относительная влажность воздуха - влажноcть воздуха, измеренная на высоте 2 м над землей.
Te - Эффективная температура - температура, которую ощущает одетый по сезону человек в тени. Характеристика душности погоды. При расчете учитывается влияние влажности воздуха и скорости ветра на теплоощущения человека.
Tes - Эффективная температура на солнце - температура, которую ощущает человек, с поправкой на солнечный нагрев. Характеристика знойности погоды. Зависит от высоты солнца над горизонтом, облачности и скорости ветра. Ночью, в пасмурную погоду, а также при ветре 12 м/с и более поправка равна нулю.
P - Атмосферное давление - приведенное к уровню моря атмосферное давление.
Po - Атмосферное давление - измеренное на уровне метеостанции атмосферное давление.
Tmin - Минимальная температура - минимум температуры воздуха на высоте 2 м над землей.
Tmax - Максимальная температура - максимум температуры воздуха на высоте 2 м над землей.
R - Количество осадков - Количество выпавших осадков за период времени, мм. При наведении курсора мыши на число - период времени, за который выпало указанное количество осадков.
R24 - Количество осадков - Количество выпавших осадков за 24 часа, мм.
S - Снежный покров - Высота снежного покрова, см. При наведении курсора мыши на число - состояние снежного покрова и степень покрытия местности в баллах.